Flag for Austria Weather past 2 weeks in Murau, Styria, Austria

54 °F

Partly cloudy.

Feels Like: 53 °F
Forecast: 41 / 53 °F
Wind: 5 mph from East

Location: Zeltweg

Current Time: Oct 9, 2015 at 10:43:38 PM

Latest Report: Oct 9, 2015 at 9:50 PM

Visibility: 5 mi

Pressure: 30.09 "Hg (27.18 "Hg at 848m altitude)

Humidity: 94%

Dew point: 52 °F

Location of MurauLocation

Historic Weather in Murau — Graph


Murau temperature yesterday

Maximum temperature yesterday: 55 °F (at 3:20 PM)
Minimum temperature yesterday: 52 °F (at 6:50 AM)
Average temperature yesterday: 53 °F

Past Weeks' High & Low Weather Summary

High66 °F (Oct 3, 3:50 PM)100% (Sep 25, 11:20 AM)30.51 "Hg (Sep 25, 11:20 AM)
Low28 °F (Sep 29, 7:20 AM)32% (Oct 5, 3:50 PM)29.83 "Hg (Oct 6, 3:50 PM)
Average50 °F78%30.20 "Hg
* Reported Sep 24 8:50 PM — Oct 9 8:50 PM, Murau, Weather by CustomWeather, © 2015

Note: Actual official high and low records may vary slightly from our data, if they occured in-between our weather recording intervals... More about our weather records


Murau weather history for previous 24 hours

Time TempWeatherWind HumidityBarometerVisibility
8:50 PM
Fri, Oct 9
54 °FPassing clouds.2 mph94%30.09 "Hg6 mi
7:50 PM54 °FPartly cloudy.1 mph94%30.09 "Hg6 mi
6:50 PM55 °FPartly sunny.2 mph82%30.09 "Hg12 mi
5:50 PM57 °FPartly sunny.2 mph77%30.07 "Hg12 mi
4:50 PM57 °FPartly sunny.1 mph72%30.07 "Hg12 mi
3:50 PM57 °FBroken clouds.1 mph67%30.07 "Hg12 mi
2:50 PM57 °FBroken clouds.2 mph72%30.09 "Hg12 mi
1:50 PM57 °FPartly sunny.2 mph72%30.09 "Hg12 mi
12:50 PM55 °FPartly sunny.2 mph77%30.09 "Hg12 mi
12:20 PM55 °FPartly sunny.2 mph77%30.12 "Hg12 mi
11:50 AM54 °FBroken clouds.1 mph82%30.12 "Hg12 mi
11:20 AM54 °FPartly sunny.2 mph88%30.12 "Hg12 mi
10:50 AM52 °FBroken clouds.2 mph94%30.12 "Hg9 mi
10:20 AM52 °FMore clouds than sun.2 mph94%30.12 "Hg9 mi
9:50 AM50 °FMore clouds than sun.2 mph94%30.12 "Hg9 mi
9:20 AM50 °FMostly cloudy.2 mph94%30.12 "Hg9 mi
8:50 AM50 °FMostly cloudy.2 mph94%30.12 "Hg9 mi
8:20 AM48 °FMostly cloudy.2 mph94%30.12 "Hg7 mi
7:50 AM48 °FMostly cloudy.2 mph94%30.12 "Hg7 mi
7:20 AM48 °FMostly cloudy.2 mph94%30.12 "Hg6 mi
6:50 AM50 °FMostly cloudy.2 mph94%30.09 "Hg6 mi
5:50 AM50 °FMostly cloudy.2 mph94%30.09 "Hg6 mi
4:50 AM50 °FMostly cloudy.2 mph94%30.09 "Hg6 mi
10:50 PM
Thu, Oct 8
52 °FLow clouds.2 mph94%30.12 "Hg6 mi
Weather by CustomWeather, © 2015

See weather overviewHow to use our weather pages